When you browse on this site, cookies collect data to enhance your experience and personalize the content and advertising you see.
Visit our Privacy Policy to learn more. By continuing to use the site, you agree to this use of cookies and data.
  • In Sweden
  • List of Countries
  • For 7 days
  • Water Temperature
  • Satellite Maps
  • Weather Map
  • Weather Widgets
  • user-avatar
    Login

    Hourly Weather Harwich

    Today, 26 June, Wednesday

    Time Temperature Precipitation Wind Pressure Humidity
    00:00 +15°C° 0 mm 4 mps 767 mmHg 96%
    01:00 +15°C° 0 mm 5 mps 767 mmHg 95%
    02:00 +15°C° 0 mm 5 mps 768 mmHg 93%
    03:00 +15°C° 0 mm 6 mps 768 mmHg 92%
    04:00 +15°C° 0 mm 6 mps 768 mmHg 92%
    05:00 +16°C° 0 mm 6 mps 769 mmHg 91%
    06:00 +16°C° 0 mm 6 mps 769 mmHg 90%
    07:00 +16°C° 0 mm 6 mps 769 mmHg 89%
    08:00 +17°C° 0 mm 6 mps 770 mmHg 88%
    09:00 +17°C° 0 mm 6 mps 770 mmHg 86%
    10:00 +17°C° 0 mm 6 mps 771 mmHg 85%
    11:00 +17°C° 0 mm 6 mps 771 mmHg 84%
    12:00 +17°C° 0 mm 6 mps 772 mmHg 83%
    13:00 +17°C° 0 mm 7 mps 771 mmHg 82%
    14:00 +18°C° 0 mm 7 mps 771 mmHg 81%
    15:00 +18°C° 0 mm 8 mps 771 mmHg 80%
    16:00 +17°C° 0 mm 8 mps 771 mmHg 81%
    17:00 +16°C° 0 mm 8 mps 771 mmHg 82%
    18:00 +15°C° 0 mm 8 mps 771 mmHg 84%
    19:00 +13°C° 0 mm 8 mps 771 mmHg 86%
    20:00 +12°C° 0 mm 8 mps 772 mmHg 88%
    21:00 +11°C° 0 mm 8 mps 772 mmHg 90%
    22:00 +11°C° 0 mm 7 mps 772 mmHg 91%
    23:00 +10°C° 0 mm 7 mps 772 mmHg 93%

    Tomorrow, 27 June, Thursday

    Time Temperature Precipitation Wind Pressure Humidity
    00:00 +10°C° 0 mm 6 mps 772 mmHg 94%
    01:00 +10°C° 0 mm 6 mps 772 mmHg 94%
    02:00 +10°C° 0 mm 6 mps 772 mmHg 94%
    03:00 +9°C° 0 mm 6 mps 772 mmHg 94%
    04:00 +10°C° 0 mm 7 mps 772 mmHg 90%
    05:00 +11°C° 0 mm 7 mps 772 mmHg 86%
    06:00 +12°C° 0 mm 7 mps 772 mmHg 83%
    07:00 +14°C° 0 mm 7 mps 772 mmHg 80%
    08:00 +16°C° 0 mm 7 mps 773 mmHg 78%
    09:00 +17°C° 0 mm 7 mps 773 mmHg 75%
    10:00 +18°C° 0 mm 7 mps 773 mmHg 74%
    11:00 +18°C° 0 mm 7 mps 773 mmHg 73%
    12:00 +20°C° 0 mm 7 mps 773 mmHg 72%
    13:00 +20°C° 0 mm 7 mps 773 mmHg 72%
    14:00 +20°C° 0 mm 8 mps 772 mmHg 72%
    15:00 +20°C° 0 mm 8 mps 772 mmHg 72%
    16:00 +18°C° 0 mm 7 mps 772 mmHg 74%
    17:00 +17°C° 0 mm 7 mps 772 mmHg 77%
    18:00 +17°C° 0 mm 7 mps 771 mmHg 80%
    19:00 +15°C° 0 mm 7 mps 771 mmHg 84%
    20:00 +12°C° 0 mm 7 mps 772 mmHg 89%
    21:00 +11°C° 0 mm 7 mps 772 mmHg 94%
    22:00 +10°C° 0 mm 6 mps 771 mmHg 95%
    23:00 +10°C° 0 mm 6 mps 771 mmHg 96%

    Day after tomorrow, 28 June, Friday

    Time Temperature Precipitation Wind Pressure Humidity
    00:00 +10°C° 0 mm 6 mps 771 mmHg 96%
    01:00 +10°C° 0 mm 6 mps 771 mmHg 97%
    02:00 +10°C° 0 mm 5 mps 770 mmHg 97%
    03:00 +10°C° 0 mm 5 mps 770 mmHg 97%
    04:00 +10°C° 0 mm 5 mps 770 mmHg 95%
    05:00 +11°C° 0 mm 6 mps 770 mmHg 93%
    06:00 +13°C° 0 mm 6 mps 769 mmHg 91%
    07:00 +14°C° 0 mm 6 mps 769 mmHg 87%
    08:00 +16°C° 0 mm 6 mps 769 mmHg 82%
    09:00 +17°C° 0 mm 6 mps 769 mmHg 78%
    10:00 +19°C° 0 mm 6 mps 769 mmHg 76%
    11:00 +18°C° 0 mm 7 mps 769 mmHg 73%
    12:00 +20°C° 0 mm 7 mps 769 mmHg 71%
    13:00 +20°C° 0 mm 7 mps 768 mmHg 70%
    14:00 +20°C° 0 mm 7 mps 768 mmHg 69%
    15:00 +20°C° 0 mm 7 mps 768 mmHg 68%
    16:00 +18°C° 0 mm 7 mps 767 mmHg 70%
    17:00 +17°C° 0 mm 6 mps 767 mmHg 73%
    18:00 +17°C° 0 mm 6 mps 767 mmHg 75%
    19:00 +15°C° 0 mm 6 mps 766 mmHg 79%
    20:00 +14°C° 0 mm 6 mps 766 mmHg 83%
    21:00 +13°C° 0 mm 5 mps 766 mmHg 87%
    22:00 +13°C° 0 mm 5 mps 766 mmHg 88%
    23:00 +13°C° 0 mm 5 mps 765 mmHg 89%

    29 June, Saturday

    Time Temperature Precipitation Wind Pressure Humidity
    00:00 +13°C° 0 mm 5 mps 765 mmHg 91%
    01:00 +14°C° 0 mm 5 mps 765 mmHg 92%
    02:00 +14°C° 0 mm 5 mps 764 mmHg 92%
    03:00 +14°C° 0 mm 5 mps 764 mmHg 93%
    04:00 +15°C° 0 mm 5 mps 764 mmHg 91%
    05:00 +16°C° 0 mm 5 mps 763 mmHg 89%
    06:00 +17°C° 0 mm 5 mps 763 mmHg 86%
    07:00 +19°C° 0 mm 5 mps 763 mmHg 82%
    08:00 +20°C° 0 mm 5 mps 763 mmHg 78%
    09:00 +21°C° 0 mm 5 mps 762 mmHg 74%
    10:00 +22°C° 0 mm 5 mps 762 mmHg 71%
    11:00 +23°C° 0 mm 5 mps 761 mmHg 69%
    12:00 +23°C° 0 mm 5 mps 761 mmHg 66%
    13:00 +25°C° 0 mm 5 mps 760 mmHg 65%
    14:00 +25°C° 0 mm 5 mps 760 mmHg 65%
    15:00 +26°C° 0 mm 5 mps 759 mmHg 64%
    16:00 +25°C° 0 mm 4 mps 759 mmHg 67%
    17:00 +25°C° 0 mm 4 mps 758 mmHg 71%
    18:00 +23°C° 0 mm 4 mps 758 mmHg 74%
    19:00 +22°C° 0 mm 5 mps 758 mmHg 79%
    20:00 +21°C° 0 mm 5 mps 758 mmHg 85%
    21:00 +20°C° 0 mm 5 mps 759 mmHg 90%
    22:00 +20°C° 0 mm 5 mps 759 mmHg 91%
    23:00 +19°C° 0 mm 6 mps 759 mmHg 91%

    30 June, Sunday

    Time Temperature Precipitation Wind Pressure Humidity
    00:00 +17°C° 0 mm 6 mps 759 mmHg 91%
    01:00 +15°C° 0 mm 6 mps 759 mmHg 92%
    02:00 +14°C° 0 mm 6 mps 760 mmHg 92%
    03:00 +12°C° 0 mm 5 mps 760 mmHg 93%
    04:00 +13°C° 0 mm 5 mps 760 mmHg 91%
    05:00 +14°C° 0 mm 5 mps 761 mmHg 89%
    06:00 +15°C° 0 mm 5 mps 761 mmHg 88%
    07:00 +16°C° 0 mm 5 mps 761 mmHg 84%
    08:00 +17°C° 0 mm 5 mps 761 mmHg 81%
    09:00 +19°C° 0 mm 5 mps 762 mmHg 78%
    10:00 +19°C° 0 mm 5 mps 762 mmHg 76%
    11:00 +19°C° 0 mm 5 mps 762 mmHg 75%
    12:00 +20°C° 0 mm 5 mps 762 mmHg 74%
    13:00 +20°C° 0 mm 5 mps 762 mmHg 73%
    14:00 +20°C° 0 mm 5 mps 762 mmHg 73%
    15:00 +20°C° 0 mm 5 mps 762 mmHg 73%
    16:00 +20°C° 0 mm 5 mps 761 mmHg 74%
    17:00 +20°C° 0 mm 5 mps 761 mmHg 75%
    18:00 +20°C° 0 mm 5 mps 761 mmHg 76%
    19:00 +19°C° 0 mm 5 mps 761 mmHg 79%
    20:00 +17°C° 0 mm 5 mps 762 mmHg 82%
    21:00 +15°C° 0 mm 4 mps 762 mmHg 85%
    22:00 +15°C° 0 mm 5 mps 762 mmHg 88%
    23:00 +14°C° 0 mm 5 mps 762 mmHg 91%

    1 July, Monday

    Time Temperature Precipitation Wind Pressure Humidity
    00:00 +13°C° 0 mm 6 mps 762 mmHg 94%
    01:00 +12°C° 0 mm 5 mps 762 mmHg 94%
    02:00 +12°C° 0 mm 5 mps 762 mmHg 95%
    03:00 +10°C° 0 mm 5 mps 762 mmHg 95%
    04:00 +12°C° 0 mm 5 mps 762 mmHg 93%
    05:00 +12°C° 0 mm 5 mps 762 mmHg 91%
    06:00 +13°C° 0 mm 5 mps 762 mmHg 88%
    07:00 +14°C° 0 mm 5 mps 762 mmHg 81%
    08:00 +15°C° 0 mm 6 mps 763 mmHg 74%
    09:00 +16°C° 0 mm 6 mps 763 mmHg 66%
    10:00 +16°C° 0 mm 6 mps 763 mmHg 67%
    11:00 +16°C° 0 mm 6 mps 763 mmHg 67%
    12:00 +16°C° 0 mm 6 mps 764 mmHg 68%
    13:00 +16°C° 0 mm 6 mps 764 mmHg 67%
    14:00 +17°C° 0 mm 6 mps 764 mmHg 66%
    15:00 +17°C° 0 mm 5 mps 764 mmHg 66%
    16:00 +17°C° 0 mm 5 mps 764 mmHg 69%
    17:00 +17°C° 0 mm 5 mps 764 mmHg 73%
    18:00 +17°C° 0 mm 5 mps 764 mmHg 77%
    19:00 +15°C° 0 mm 5 mps 765 mmHg 79%
    20:00 +14°C° 0 mm 5 mps 765 mmHg 82%
    21:00 +13°C° 0 mm 5 mps 765 mmHg 85%
    22:00 +11°C° 0 mm 6 mps 766 mmHg 85%
    23:00 +11°C° 0 mm 6 mps 766 mmHg 86%
    Show more